User: anonymous   Login
Location: Invercargill
(46.4000°S, 168.3500°E)
Time: 15:39:43
(UTC+12:00)
Language:

Cosmos 2322 - Orbit

View from above orbital plane
View from above orbital plane
View from above satellite
View from above satellite

Ground track
Ground track

The orbit data is extracted from the following two-line orbital elements,

1 23704U 95058A   21207.26055919 -.00000054  00000-0 -34212-5 0  9990
2 23704  70.9862 139.5321 0010952 332.3572  27.6966 14.13442955327596
Epoch (UTC): 26 July 2021 06:15:12
Eccentricity: 0.0010952
inclination: 70.9862°
perigee height: 840 km
apogee height: 855 km
right ascension of ascending node: 139.5321°
argument of perigee: 332.3572°
revolutions per day: 14.13442955
mean anomaly at epoch: 27.6966°
orbit number at epoch: 32759

The dashed part of the orbit path shows where the satellite is in the earth's shadow,  

DLR